Find Starlink 6274

NORAD ID: 56776 Int'l Des: 2023-078 Owner: SPXS Country: US Constellation: starlink operational
LEOCIRCULAR

現在のビュー

3D地球を読み込み中...

About Starlink 6274

Starlink 6274 (NORAD 56776) is a starlink constellation satellite (v1.5) launched May 31, 2023 by SPXS of US. It operates in LEO, CIRCULAR orbit with a mass of 305.00 kg.

次回通過

Passes for default location (London). Set your location on the main map for personalized predictions.

高度履歴

Loading altitude history...

軌道要素

1 56776U 23078K 26263.91670139 .00000147 00000-0 16201-4 0 9992
2 56776 70.0011 192.2651 0001121 304.0300 126.6055 15.07881200 5713
Epoch: Sep 20, 2026 • Age: 12 hours

現在のステータス

高度 551.1 km
遠地点 / 近地点 N/A
速度 7.59 km/s
衛星直下点 -23.60°S, 126.27°W
打ち上げ日 May 31, 2023
運用期間 3.3 years
タイプ internet

技術仕様

分類 Payload
質量 305.00 kg
乾燥質量 290.00 kg
長さ 0.20 m
スパン 9.00 m
形状 ? Box + pan
製造者 SPXS
バスタイプ Starlink
フェーズステータス In Orbit
所有者/国 SPXS/US

Most Searched